This demonstration page uses our WeatherBlox Daily Observations layout. Learn more.

Left ArrowRight Arrow

Hourly Observations for May 19, 2022

Temp ( °F °C ) Dew Point ( °F °C ) Humidity (%) Winds ( mph kmh ) Pressure ( in mb ) Visibility ( mi km ) Precip ( " mm )
12:53 am 00:53 Mostly Cloudy 71 21.7 63 17.2 76 76 ESE 8 13 29.73 1007 10 16 0.00 0.00
1:53 am 01:53 Clear 71 21.7 64 17.8 79 79 ESE 7 11 29.71 1006 10 16 0.00 0.00
2:53 am 02:53 Cloudy 72 22.2 64 17.8 76 76 ESE 9 15 29.67 1005 10 16 0.00 0.00
3:53 am 03:53 Clear 71 21.7 65 18.3 81 81 E 8 13 29.64 1004 10 16 0.00 0.00
4:50 am 04:50 Cloudy with Thunderstorms 72 22 66 19 83 83 E 7 11 29.63 1003 10 16 0.00 0.00
4:53 am 04:53 Cloudy with Thunderstorms 72 22.2 66 18.9 82 82 ESE 7 11 29.63 1003 10 16 0.00 0.00
5:53 am 05:53 Mostly Cloudy 71 21.7 65 18.3 81 81 NNW 12 19 29.57 1002 10 16 0.00 0.00
6:53 am 06:53 Cloudy 68 20 65 18.3 90 90 SSW 8 13 29.54 1000 9 14 0.00 0.00
7:53 am 07:53 Cloudy 70 21.1 66 18.9 87 87 Calm 29.58 1002 10 16 0.00 0.00
8:53 am 08:53 Cloudy 71 21.7 67 19.4 87 87 SE 13 20 29.61 1003 9 14 0.00 0.00
9:40 am 09:40 Mostly Cloudy 69 20.6 64 17.8 84 84 S 13 20 29.63 1003 10 16 0.00 0.00
9:53 am 09:53 Mostly Cloudy 69 20.6 64 17.8 84 84 S 12 19 29.62 1003 9 14 0.00 0.00
10:53 am 10:53 Cloudy 74 23.3 66 18.9 76 76 S 16 26 29.60 1003 10 16 0.00 0.00
11:53 am 11:53 Cloudy 76 24.4 67 19.4 74 74 S 12 19 29.58 1002 10 16 0.00 0.00
12:53 pm 12:53 Cloudy 79 26.1 66 18.9 65 65 SW 10 17 29.55 1001 10 16 0.00 0.00
1:53 pm 13:53 Cloudy 83 28.3 63 17.2 51 51 SSW 13 20 29.51 999 10 16 0.00 0.00
2:53 pm 14:53 Cloudy 85 29.4 63 17.2 48 48 SSW 15 24 29.48 998 10 16 0.00 0.00
3:00 pm 15:00 Mostly Cloudy 85 29.4 63 17.2 48 48 SSW 17 28 29.44 997 10 16 0.00 0.00
3:53 pm 15:53 Mostly Cloudy 87 30.6 63 17.2 45 45 SSW 20 31 29.44 997 10 16 0.00 0.00
4:53 pm 16:53 Mostly Cloudy 88 31.1 62 16.7 42 42 S 22 35 29.40 996 10 16 0.00 0.00
5:53 pm 17:53 Mostly Cloudy 88 31.1 63 17.2 43 43 S 21 33 29.37 995 10 16 0.00 0.00
6:53 pm 18:53 Mostly Cloudy 87 30.6 64 17.8 46 46 S 21 33 29.35 994 10 16 0.00 0.00
7:04 pm 19:04 Mostly Cloudy 86 30 64 17.8 48 48 S 16 26 29.32 993 10 16 0.00 0.00
7:53 pm 19:53 Mostly Cloudy 83 28.3 66 18.9 57 57 SSE 15 24 29.34 993 10 16 0.00 0.00
8:53 pm 20:53 Mostly Cloudy 81 27.2 69 20.6 67 67 SSE 16 26 29.33 993 10 16 0.00 0.00
9:53 pm 21:53 Mostly Cloudy 79 26.1 69 20.6 72 72 SSE 17 28 29.33 993 10 16 0.00 0.00
10:53 pm 22:53 Mostly Cloudy 78 25.6 68 20 71 71 SSE 17 28 29.31 993 10 16 0.00 0.00
11:53 pm 23:53 Mostly Cloudy 78 25.6 66 18.9 67 67 SSE 18 30 29.28 992 10 16 0.00 0.00

Powered by AerisWeather